EW9543 Weather Reports


time (UTC)temp
C
wind
direction
speed
KPH
gust
KPH
rain 1hr
cm
rain 24hr
cm
rain mn
cm
humidity
%
barometer
mb
20260506134546 12 265 0.0 0.0 0.00 0.00 0.00 85 1018.6
20260506133049 11 257 0.0 0.0 0.00 0.00 0.00 85 1018.6
20260506131542 11 259 0.0 0.0 0.00 0.00 0.00 85 1018.4
20260506130040 11 259 0.0 0.0 0.00 0.00 0.00 84 1018.4
20260506124537 11 259 0.0 0.0 0.00 0.00 0.00 84 1018.3
20260506123036 11 259 0.0 0.0 0.00 0.00 0.00 84 1018.3
20260506121536 11 259 0.0 0.0 0.00 0.00 0.00 84 1018.2
20260506120037 11 259 0.0 0.0 0.00 0.00 0.00 84 1018.1
20260506114529 11 259 0.0 0.0 0.00 0.00 0.00 84 1018.1
20260506113027 11 259 0.0 0.0 0.00 0.00 0.00 85 1017.9
20260506111526 11 259 0.0 0.0 0.00 0.00 0.00 85 1017.8
20260506110023 11 259 0.0 0.0 0.00 0.00 0.00 85 1017.8
20260506104523 11 259 0.0 0.0 0.00 0.00 0.00 85 1017.6
20260506103022 11 259 0.0 0.0 0.00 0.00 0.00 85 1017.6
20260506101525 11 259 0.0 0.0 0.00 0.00 0.00 85 1017.6
20260506100053 11 259 0.0 0.0 0.00 0.00 0.00 85 1017.5
20260506094549 11 259 0.0 0.0 0.00 0.00 0.00 85 1017.4
20260506093046 11 259 0.0 0.0 0.00 0.00 0.00 85 1017.4
20260506091550 11 259 0.0 0.0 0.00 0.00 0.00 85 1017.5
20260506090045 11 259 0.0 0.0 0.00 0.00 0.00 84 1017.5
20260506084545 11 259 0.0 0.0 0.00 0.00 0.00 84 1017.6
20260506083041 12 266 0.0 0.0 0.00 0.00 0.00 84 1017.6
20260506081540 12 263 0.0 0.0 0.00 0.00 0.00 83 1017.5
20260506073036 12 239 0.0 0.0 0.00 0.00 0.00 83 1017.2
20260506071533 12 261 0.0 0.0 0.00 0.00 0.00 82 1017.0
20260506061525 12 266 0.0 0.0 0.00 0.00 0.00 80 1016.6
20260506044517 12 183 0.0 0.0 0.00 0.00 0.00 78 1016.1
20260506043014 12 182 0.0 0.0 0.00 0.00 0.00 78 1015.8
20260506041542 12 185 0.0 0.0 0.00 0.00 0.00 77 1015.6
20260506040043 12 313 0.0 0.0 0.00 0.00 0.00 77 1015.4
20260506034538 12 174 0.0 0.0 0.00 0.00 0.00 77 1015.4
20260506033040 12 169 0.0 0.0 0.00 0.00 0.00 78 1015.2
20260506031535 13 175 0.0 0.0 0.00 0.00 0.00 78 1014.7
20260506030032 13 186 0.0 1.6 0.00 0.00 0.00 77 1014.6
20260506024530 13 172 0.0 0.0 0.00 0.00 0.00 78 1014.5
20260506023031 13 168 0.0 0.0 0.00 0.00 0.00 77 1014.5
20260506021533 13 190 0.0 0.0 0.00 0.00 0.00 76 1014.3
20260506020031 13 181 0.0 0.0 0.00 0.00 0.00 76 1014.2
20260506014525 14 168 0.0 0.0 0.00 0.00 0.00 75 1013.9
20260506013024 15 179 0.0 0.0 0.00 0.00 0.00 74 1013.9
20260506011529 15 192 0.0 0.0 0.00 0.00 0.00 75 1013.7
20260506010041 16 169 0.0 0.0 0.00 0.00 0.00 74 1013.7
20260506004519 16 145 0.0 0.0 0.00 0.00 0.00 74 1013.7
20260506003019 16 140 0.0 0.0 0.00 0.00 0.00 74 1013.6
20260506001518 16 173 0.0 0.0 0.00 0.00 0.00 73 1013.5
20260506000017 16 198 0.0 3.2 0.00 0.00 0.00 73 1013.4
20260505234531 16 165 0.0 12.9 0.00 0.00 0.00 72 1013.5
20260505233013 17 178 0.0 8.0 0.00 0.00 0.00 71 1013.4
20260505231513 17 161 0.0 4.8 0.00 0.00 0.00 71 1013.4
20260505230015 18 147 0.0 3.2 0.00 0.00 0.00 69 1013.5
20260505224510 19 182 0.0 6.4 0.00 0.00 0.00 69 1013.4
20260505223010 21 253 0.0 0.0 0.00 0.00 0.00 65 1013.6
20260505221508 20 171 0.0 0.0 0.00 0.00 0.00 65 1013.7
20260505220004 19 174 0.0 6.4 0.00 0.00 0.00 70 1013.8
20260505214500 18 202 0.0 4.8 0.00 0.00 0.00 72 1013.9
20260505213105 18 270 0.0 1.6 0.00 0.00 0.00 70 1014.1
20260505211558 18 190 0.0 0.0 0.00 0.00 0.00 72 1014.1
20260505210104 18 265 0.0 0.0 0.00 0.00 0.00 72 1014.2
20260505204559 18 225 0.0 0.0 0.00 0.00 0.00 72 1014.2
20260505203056 17 179 0.0 0.0 0.00 0.00 0.00 73 1014.2
20260505201555 17 192 0.0 0.0 0.00 0.00 0.00 75 1014.4
20260505194554 16 255 0.0 0.0 0.00 0.00 0.00 74 1014.3
20260505193050 16 196 0.0 0.0 0.00 0.00 0.00 74 1014.4
20260505191545 16 202 0.0 0.0 0.00 0.00 0.00 74 1014.4
20260505190045 16 186 0.0 0.0 0.00 0.00 0.00 74 1014.4
20260505184541 16 207 0.0 0.0 0.00 0.00 0.00 74 1014.4
20260505183041 15 182 0.0 0.0 0.00 0.00 0.00 75 1014.4
20260505181540 16 180 0.0 0.0 0.00 0.00 0.00 77 1014.4
20260505180056 15 202 0.0 0.0 0.00 0.00 0.00 77 1014.3
20260505174548 14 213 0.0 0.0 0.00 0.00 0.00 80 1014.3
20260505173033 14 222 0.0 0.0 0.00 0.00 0.00 79 1014.2
20260505171526 14 215 0.0 0.0 0.00 0.00 0.00 81 1014.0
20260505170023 13 45 0.0 0.0 0.00 0.00 0.00 84 1014.2
20260505164619 12 232 0.0 0.0 0.00 0.00 0.00 86 1014.2
20260505163049 12 236 0.0 0.0 0.00 0.00 0.00 87 1014.2
20260505161543 12 252 0.0 0.0 0.00 0.00 0.00 88 1014.0
20260505153034 11 243 0.0 0.0 0.00 0.00 0.00 90 1013.7
20260505151533 11 244 0.0 0.0 0.00 0.00 0.00 91 1013.5